[[{"header":{"parameterUnit":"m.s-1","parameterCategory":1,"la1":30.2992,"la2":30.254,"lo1":-89.0895,"lo2":-89.0443,"dy":0.0025,"dx":0.0025,"nx":19,"ny":19,"refTime":"2026-05-13T09:00:00:Z","depth":0,"parameterNumber":2,"parameterNumberName":"U-component_of_WINDS"},"data":[0,0,0,-0.1766,-0.1766,-0.1752,-0.1752,-0.1739,-0.1738,0,0,0,0,0,0,0,0,0,0,0,-0.1773,-0.1773,-0.1766,-0.1766,-0.1752,-0.1752,-0.1739,-0.1738,0,0,0,0,0,0,0,0,0,0,0,-0.1773,-0.1773,-0.1773,-0.1766,-0.1752,-0.1752,-0.1739,-0.1747,0,0,0,0,0,0,0,0,0,0,-0.176,-0.177,-0.1773,-0.1773,-0.1766,-0.1752,-0.1752,-0.1748,-0.1747,-0.1747,0,-0.1748,0,-0.1743,-0.1738,-0.1738,0,0,0,-0.1763,-0.1771,-0.1764,-0.1773,-0.1766,-0.1752,-0.1758,-0.1747,-0.1746,-0.1745,-0.1748,-0.1747,-0.1743,-0.1738,-0.1738,-0.1746,-0.1746,0,0,-0.1764,-0.1773,-0.1765,-0.1764,-0.1767,-0.1758,-0.1757,-0.1746,-0.1749,-0.1748,-0.1747,-0.1743,-0.1738,-0.1738,-0.1746,-0.1746,0,0,0,-0.1768,-0.1773,-0.1767,-0.1764,-0.1762,-0.1758,-0.1757,-0.175,-0.1747,-0.1746,-0.1742,-0.1738,-0.1738,-0.1746,-0.1746,-0.1762,0,0,0,-0.1768,-0.1775,-0.1767,-0.1772,-0.1762,-0.1756,-0.1761,-0.1748,-0.1746,-0.1742,-0.1738,-0.1737,-0.1745,-0.1746,-0.1761,-0.1769,0,0,0,-0.1773,-0.1776,-0.1775,-0.1773,-0.1767,-0.1756,-0.1752,-0.1747,-0.1744,-0.1738,-0.1737,-0.1745,-0.1746,-0.1761,-0.1768,-0.1774,0,0,0,-0.1781,-0.179,-0.1775,-0.1784,-0.1767,-0.1766,-0.1752,-0.175,-0.1747,-0.1738,-0.1745,-0.1746,-0.1761,-0.1767,-0.1773,-0.1782,-0.1786,0,0,-0.1797,-0.1792,-0.1796,-0.1783,-0.1786,-0.1767,-0.1772,-0.1761,-0.1753,-0.1748,-0.1748,-0.1762,-0.1768,-0.1774,-0.1803,-0.1807,0,0,0,-0.1804,-0.1807,-0.1806,-0.1804,-0.1795,-0.1789,-0.1776,-0.1771,-0.1767,-0.1752,-0.1765,-0.1768,-0.1771,-0.1775,-0.1778,-0.178,-0.1748,-0.1748,-0.1747,-0.184,-0.1828,-0.1834,-0.1821,-0.1818,-0.1804,-0.1801,-0.1792,-0.1782,-0.1784,-0.1784,-0.1803,-0.1808,-0.181,-0.1812,-0.1786,-0.1786,-0.1786,-0.1786,-0.1863,-0.1866,-0.1851,-0.1851,-0.1838,-0.1838,-0.1824,-0.1816,-0.1814,-0.1803,-0.1805,-0.1795,-0.1814,-0.1815,-0.1787,-0.1787,-0.1787,-0.1787,-0.1787,-0.1887,-0.1886,-0.188,-0.1875,-0.1871,-0.1856,-0.1855,-0.1843,-0.1831,-0.1833,-0.1831,-0.1831,-0.183,-0.1833,-0.1833,-0.1833,-0.1833,-0.1833,-0.1833,-0.1914,-0.1907,-0.1907,-0.1898,-0.1895,-0.1888,-0.1872,-0.1868,-0.186,-0.1851,-0.1851,-0.184,-0.1817,-0.1812,-0.1834,-0.1834,-0.1834,-0.1834,-0.1834,-0.1944,-0.1935,-0.1936,-0.1933,-0.192,-0.1918,-0.1901,-0.1893,-0.1887,-0.1887,-0.1874,-0.1859,-0.1853,-0.1851,-0.1847,-0.1877,-0.1877,-0.1877,-0.1877,-0.1965,-0.196,-0.1959,-0.1953,-0.1946,-0.1931,-0.1932,-0.1919,-0.1904,-0.19,-0.1893,-0.1886,-0.1885,-0.188,-0.1877,-0.1873,-0.1909,-0.1909,-0.1909,-0.1983,-0.1977,-0.1981,-0.1967,-0.1956,-0.1947,-0.1947,-0.194,-0.1921,-0.191,-0.1896,-0.1895,-0.1883,-0.188,-0.1871,-0.1866,-0.1859,0,0]},{"header":{"parameterUnit":"m.s-1","parameterCategory":1,"la1":30.2992,"la2":30.254,"lo1":-89.0895,"lo2":-89.0443,"dy":0.0025,"dx":0.0025,"nx":19,"ny":19,"refTime":"2026-05-13T09:00:00:Z","depth":0,"parameterNumber":3,"parameterNumberName":"V-component_of_WINDS"},"data":[0,0,0,-3.3009,-3.3011,-3.3074,-3.3074,-3.3157,-3.3158,0,0,0,0,0,0,0,0,0,0,0,-3.2993,-3.2994,-3.3009,-3.3011,-3.3074,-3.3074,-3.3157,-3.3158,0,0,0,0,0,0,0,0,0,0,0,-3.2993,-3.2993,-3.2994,-3.3011,-3.3074,-3.3074,-3.3157,-3.3108,0,0,0,0,0,0,0,0,0,0,-3.3046,-3.3034,-3.2993,-3.2994,-3.3011,-3.3074,-3.3074,-3.3105,-3.3111,-3.313,0,-3.3148,0,-3.3155,-3.3164,-3.3164,0,0,0,-3.3008,-3.3029,-3.3044,-3.2994,-3.3012,-3.3074,-3.3045,-3.3108,-3.3115,-3.3137,-3.3149,-3.3152,-3.3156,-3.3164,-3.3165,-3.3287,-3.3287,0,0,-3.3005,-3.3005,-3.304,-3.3048,-3.3041,-3.3043,-3.3047,-3.3112,-3.3125,-3.315,-3.3154,-3.3157,-3.3165,-3.3165,-3.3286,-3.3287,0,0,0,-3.2996,-3.3003,-3.3016,-3.3045,-3.3057,-3.3045,-3.3049,-3.3122,-3.3127,-3.3155,-3.3158,-3.3165,-3.3166,-3.3285,-3.3286,-3.3323,0,0,0,-3.2994,-3.2998,-3.3015,-3.3016,-3.3055,-3.309,-3.3058,-3.3122,-3.3129,-3.3158,-3.3165,-3.3167,-3.3284,-3.3286,-3.332,-3.3339,0,0,0,-3.2988,-3.2997,-3.3007,-3.3015,-3.3043,-3.3089,-3.3098,-3.3124,-3.3132,-3.3164,-3.3167,-3.3284,-3.3285,-3.3318,-3.3335,-3.3373,0,0,0,-3.2981,-3.3036,-3.3008,-3.3071,-3.3042,-3.3112,-3.3097,-3.3148,-3.318,-3.3166,-3.3285,-3.3286,-3.3317,-3.3333,-3.3371,-3.3406,-3.3421,0,0,-3.3051,-3.3045,-3.3082,-3.3059,-3.3134,-3.3102,-3.3182,-3.3209,-3.321,-3.3261,-3.3264,-3.3321,-3.3335,-3.3373,-3.35,-3.3512,0,0,0,-3.3104,-3.3132,-3.3151,-3.3183,-3.3207,-3.323,-3.3246,-3.3256,-3.33,-3.3237,-3.3344,-3.3352,-3.3374,-3.3391,-3.3401,-3.3421,-3.3294,-3.3293,-3.3293,-3.3204,-3.3205,-3.3268,-3.3278,-3.3309,-3.3326,-3.3352,-3.3369,-3.3358,-3.3384,-3.3399,-3.3476,-3.3496,-3.3503,-3.3524,-3.3417,-3.3417,-3.3417,-3.3417,-3.3308,-3.3347,-3.3336,-3.3393,-3.3394,-3.3441,-3.346,-3.3452,-3.3495,-3.3464,-3.3483,-3.345,-3.3516,-3.3534,-3.342,-3.3419,-3.3419,-3.3419,-3.3418,-3.3374,-3.3393,-3.3407,-3.3456,-3.3493,-3.35,-3.3544,-3.3542,-3.354,-3.3559,-3.3576,-3.3576,-3.3576,-3.3567,-3.3568,-3.3568,-3.3568,-3.3568,-3.3569,-3.3437,-3.3452,-3.349,-3.3523,-3.3545,-3.3573,-3.3593,-3.3614,-3.3636,-3.3631,-3.3631,-3.362,-3.3522,-3.3498,-3.3573,-3.3572,-3.3572,-3.3571,-3.3571,-3.3544,-3.352,-3.3579,-3.3602,-3.3641,-3.3679,-3.3677,-3.3721,-3.3737,-3.3759,-3.3744,-3.3672,-3.3665,-3.3657,-3.3637,-3.3743,-3.3743,-3.3743,-3.3743,-3.3601,-3.3598,-3.3659,-3.3696,-3.373,-3.3736,-3.3803,-3.3819,-3.3831,-3.3842,-3.3826,-3.38,-3.3792,-3.379,-3.3779,-3.3761,-3.3895,-3.3896,-3.3896,-3.3667,-3.3668,-3.3726,-3.3741,-3.3772,-3.3799,-3.3862,-3.3904,-3.3912,-3.3902,-3.3851,-3.3845,-3.3802,-3.3788,-3.3776,-3.3759,-3.3726,0,0]}]]